Find Shiyan 20B

NORAD ID: 54700 Int'l Des: 2022-169 Owner: SAST Country: CN operational
LEOCIRCULAR

实时位置

正在加载3D地球...

关于 Shiyan 20B

正在加载描述...

即将过境

Passes for default location (London). Set your location on the main map for personalized predictions.

高度历史

Loading altitude history...

两行轨道根数

1 54700U 22169B 26104.94034043 -.00000050 00000-0 33900-4 0 9991
2 54700 59.9959 89.5327 0018398 154.0940 206.1020 14.29518806174311
Epoch: Apr 14, 2026 • Age: 6 hours

当前状态

高度 781.1 km
速度 7.47 km/s
星下点 16.31°N, 9.6°W
发射日期 Dec 12, 2022
运行时间 3.3 years
类型 other

技术详情

分类 Payload
质量 500.00 kg
干质量 500.00 kg
总质量 500.00 kg
长度 2.50 m
直径 2.50 m
跨度 5.00 m
形状 Box + 2 Pan
制造商 SAST
阶段状态 In Orbit
所有者/国家 SAST/CN

Most Searched